Wind_Speed
40 41 39 34 33 36 39 39 38 37 37 37 36 36 36 35 34 35 37 37 37 36 33 33 33 32 31 32 30 29 29 29 30 31 31 31 30 30 31 31 31 31 30 30 30 31 31 31 31 32 32 32 33 33 33 32 32 32 32 32 32 32 33 34 34 35 35 36 36 37 38 39 40 40 41 42 43 43 43 44 45 47 48 49 50 50
41 41 38 34 36 39 40 39 39 38 38 38 37 38 38 38 38 38 39 39 38 38 35 33 32 31 32 32 30 30 30 31 33 33 33 33 32 32 32 33 33 32 32 32 32 33 33 33 33 33 33 33 32 32 32 32 33 33 33 33 33 32 33 33 33 33 34 35 35 36 37 38 39 39 40 42 43 43 44 44 44 46 47 48 50 51
43 42 38 37 40 41 41 41 40 40 39 39 39 40 40 39 40 40 40 39 38 38 36 34 32 31 32 31 30 31 31 33 35 35 36 36 35 35 35 34 34 34 34 34 34 34 34 34 33 33 32 31 31 31 31 32 32 32 32 33 33 33 33 34 34 34 35 35 36 36 37 38 38 39 40 42 42 43 44 44 45 45 46 47 49 50
45 43 41 40 42 42 42 42 41 41 40 40 40 41 40 39 40 41 39 37 37 37 36 36 34 33 32 32 31 31 33 34 36 37 37 38 38 37 37 36 35 35 35 35 34 34 33 32 31 30 30 30 30 30 31 31 32 32 32 32 32 32 33 33 34 34 35 36 36 37 38 38 39 39 40 41 42 43 44 45 46 46 46 47 47 48
45 44 42 42 43 44 44 43 42 41 41 41 41 40 39 39 40 39 38 37 37 37 37 37 37 36 34 34 33 33 35 36 37 37 38 38 38 38 38 37 37 36 36 35 33 32 32 31 30 30 30 31 31 31 31 31 31 32 32 32 32 32 33 33 34 34 35 36 36 37 38 38 38 39 40 41 42 43 44 46 47 48 48 48 48 48
44 43 43 43 44 44 44 43 41 41 42 41 40 39 39 39 39 38 38 39 39 39 38 39 40 39 37 35 34 35 37 38 37 38 38 38 38 38 38 38 37 36 35 34 33 33 32 32 32 31 31 32 32 32 32 32 32 33 33 33 34 34 35 35 35 36 37 37 38 38 39 39 40 40 41 42 43 44 45 46 48 49 49 50 50 50
43 42 43 44 44 44 44 42 40 42 43 41 38 37 39 39 39 39 39 40 40 40 40 41 41 41 41 38 36 37 39 39 38 38 39 39 39 38 38 37 36 36 35 34 34 34 33 32 32 32 33 33 33 34 34 34 34 34 35 35 35 36 37 38 38 39 39 40 40 41 42 42 42 43 43 44 45 46 47 48 49 49 50 51 52 52
42 42 43 43 43 42 41 40 40 42 41 38 36 37 39 39 39 40 41 41 42 42 42 42 41 42 42 40 38 38 39 38 39 40 40 39 39 38 37 37 36 36 36 36 36 36 36 34 33 34 35 36 36 36 37 37 37 37 37 37 38 39 40 40 41 42 43 43 43 44 45 45 46 46 47 48 48 49 50 51 52 52 53 53 54 55
41 41 41 41 40 39 38 38 40 40 38 37 37 38 39 40 41 42 42 43 43 43 43 42 41 41 43 42 41 40 39 39 40 40 39 39 38 37 37 36 36 37 37 37 37 37 38 39 38 37 38 38 39 39 39 39 39 39 40 40 41 42 43 43 44 45 46 46 47 48 48 49 50 50 51 51 52 53 53 54 55 55 56 57 57 58
41 40 38 38 37 36 37 38 38 38 38 38 38 39 40 42 43 44 44 44 44 44 43 41 40 41 43 44 43 42 41 41 40 38 37 37 37 37 37 37 38 38 38 38 38 39 41 43 44 43 43 42 42 42 42 42 42 42 43 44 44 45 46 47 47 48 49 50 50 51 52 52 53 54 54 55 56 56 57 57 58 59 59 60 60 61
39 38 37 36 35 35 36 37 37 37 38 38 39 41 42 44 45 46 46 45 45 43 41 40 40 41 44 46 46 44 43 41 39 38 37 36 37 38 38 40 40 40 40 40 41 42 43 45 47 48 49 48 48 47 47 46 46 46 46 47 48 49 50 50 51 51 52 53 54 54 55 56 56 57 57 58 59 59 60 61 62 62 63 63 64 64
38 37 36 36 36 36 36 36 36 36 37 38 40 42 44 45 46 46 46 45 44 42 40 40 41 43 46 47 46 46 45 43 41 40 39 39 39 40 42 43 43 42 42 43 44 45 46 47 49 50 52 53 52 52 51 51 51 51 50 50 50 51 52 53 54 55 56 56 57 57 57 58 58 59 60 60 61 61 62 63 65 66 67 67 68 68
38 38 37 36 36 35 35 35 35 36 37 39 41 42 43 44 45 45 43 42 41 41 41 43 44 46 48 47 46 45 46 46 45 44 43 43 44 45 45 45 44 43 44 45 47 48 48 49 50 52 53 54 55 55 55 54 54 55 55 54 54 54 55 55 56 57 58 59 59 59 59 60 60 61 61 62 63 63 64 66 67 68 69 70 71 72
39 38 37 36 36 36 36 36 36 38 39 39 40 41 42 43 43 43 42 42 42 43 44 46 48 50 50 48 47 46 47 48 48 48 48 48 49 48 47 46 44 44 45 48 50 50 50 51 53 54 55 56 56 56 57 57 57 57 58 58 58 58 58 58 59 60 60 61 61 61 62 62 62 63 63 64 64 65 66 68 69 70 71 73 74 76
38 39 38 38 38 38 38 38 38 39 40 40 40 41 41 42 41 41 42 44 46 47 49 52 53 54 53 52 51 50 50 50 50 50 51 50 50 49 47 46 46 46 48 50 52 53 53 55 56 57 57 58 58 58 58 59 59 59 60 61 61 62 62 62 62 62 63 63 63 64 64 65 65 66 66 67 67 68 68 69 70 71 73 74 76 78
40 40 40 39 39 38 39 39 40 40 40 41 41 41 42 40 40 42 45 47 48 51 54 56 56 56 55 55 56 56 55 53 52 51 50 49 49 48 48 48 48 49 51 54 55 55 56 58 58 59 59 59 59 60 60 60 61 61 62 63 64 64 64 65 65 65 65 66 66 66 67 67 68 68 69 70 70 71 71 72 72 73 74 75 77 79
42 41 40 39 39 39 40 40 41 41 42 42 42 42 41 40 42 44 46 48 50 54 57 57 57 57 57 57 58 57 56 54 53 51 50 49 48 49 49 50 51 53 55 57 57 57 58 59 59 59 60 60 60 61 61 62 63 63 64 65 66 66 66 67 67 67 68 68 69 69 70 70 70 71 71 72 72 73 73 73 74 74 75 75 77 79
42 42 41 40 40 40 41 41 42 42 42 42 42 41 41 43 44 45 47 50 52 57 59 59 58 58 58 59 58 56 55 54 52 51 51 51 51 51 51 53 55 56 58 58 59 59 60 60 61 61 61 61 62 63 64 65 66 66 67 67 68 68 69 69 69 70 70 71 72 72 72 73 73 73 73 73 74 74 74 74 75 75 76 76 77 78
43 43 44 44 42 41 41 41 43 43 41 41 41 42 43 45 46 46 49 51 54 58 61 61 60 59 58 58 57 56 55 54 53 53 53 52 52 53 55 56 57 58 59 59 60 60 61 62 62 62 63 63 64 65 66 67 67 68 68 69 70 70 71 71 72 72 73 73 74 74 74 74 74 74 74 74 75 75 76 76 76 77 78 78 79 79
45 45 46 45 43 42 42 43 43 41 40 42 43 45 47 48 49 50 51 54 57 60 63 63 61 60 60 59 58 58 57 56 55 54 53 52 54 56 58 58 58 59 59 60 61 62 63 63 64 64 65 65 66 67 68 68 68 68 69 70 71 72 72 73 73 74 74 75 75 75 76 75 75 75 76 76 77 77 78 78 79 79 80 80 81 82
46 46 45 44 43 44 45 44 43 43 44 47 49 51 52 52 53 54 55 57 59 61 62 62 62 62 62 62 62 60 57 55 54 53 53 55 57 58 58 58 59 60 61 62 63 64 65 65 66 66 67 67 68 69 69 69 70 70 71 71 72 73 73 74 74 75 76 76 76 77 77 77 77 78 78 78 79 79 80 81 81 82 83 83 84 84
45 45 44 45 46 47 46 46 47 49 51 53 54 55 55 55 55 57 59 59 59 59 59 60 62 63 63 64 64 59 54 54 55 55 57 59 59 59 59 59 61 62 63 65 65 66 67 67 68 68 68 69 70 70 71 71 72 72 72 72 73 73 74 75 76 77 77 78 78 78 79 79 80 80 80 80 81 81 82 83 83 84 85 85 86 87
44 45 47 49 50 49 49 51 52 53 54 55 57 56 55 55 55 56 58 57 56 58 59 60 64 64 61 60 60 57 54 55 57 59 60 60 60 60 60 61 63 64 66 66 67 67 68 69 70 70 70 71 71 72 73 73 73 73 73 73 73 73 74 75 77 78 78 79 79 80 80 81 80 80 80 81 81 82 83 84 85 85 86 87 88 88
46 49 51 52 53 53 55 56 57 58 59 59 58 56 54 54 53 53 55 55 56 60 60 60 63 63 60 57 55 55 56 56 57 59 60 61 61 62 63 64 65 67 67 68 69 70 71 71 71 71 72 72 73 73 73 73 73 73 73 73 73 74 75 76 77 78 79 79 80 80 80 80 80 81 81 82 82 83 84 85 86 87 87 88 89 89
51 52 53 54 56 58 60 61 62 63 62 59 58 57 56 55 55 55 55 56 59 62 61 60 62 62 57 54 53 55 57 57 58 60 61 62 63 64 66 67 68 69 70 71 72 73 73 73 73 73 73 73 73 73 73 73 73 73 73 73 74 75 76 77 78 79 79 79 79 79 80 80 81 82 82 83 84 84 85 86 87 88 88 89 89 90
55 56 57 58 60 63 64 64 63 61 59 59 60 60 59 59 59 59 57 59 63 64 62 61 63 60 54 53 55 57 57 58 60 61 62 63 65 67 69 70 70 71 72 72 73 73 73 73 73 74 74 73 73 72 72 72 72 72 73 74 75 76 77 78 78 79 79 79 79 80 81 81 82 82 83 83 84 85 86 87 88 88 89 89 89 89
57 58 59 60 62 63 63 62 61 61 61 62 63 62 61 61 61 60 61 63 64 64 63 61 60 58 54 54 58 59 58 60 62 63 65 66 68 70 71 71 72 73 74 74 73 73 73 73 73 73 73 72 72 72 72 72 72 73 74 75 75 76 77 77 78 79 80 80 80 81 81 82 82 83 83 84 85 86 87 87 88 88 89 89 89 90
59 60 60 60 62 63 62 62 62 63 64 64 64 63 62 62 61 61 62 63 61 62 63 59 58 60 57 56 60 62 61 63 64 66 67 69 70 72 73 74 75 75 74 74 74 74 74 73 73 73 72 72 72 72 72 73 73 74 74 74 75 76 77 78 79 80 80 80 81 81 82 82 83 84 84 85 86 87 87 88 88 89 89 89 89 90
62 62 61 61 63 64 63 63 63 63 64 64 64 63 61 60 61 61 62 61 60 62 63 60 61 63 60 58 62 64 64 66 67 68 69 70 71 73 74 75 75 74 73 74 74 74 73 73 72 72 72 72 72 72 73 73 74 74 74 75 76 77 78 78 79 80 80 81 81 82 83 83 84 85 86 86 87 87 88 88 88 88 88 88 88 88
62 63 62 63 64 65 65 64 63 62 62 62 61 61 61 63 64 64 63 63 63 64 64 63 65 64 60 60 64 64 65 67 68 69 70 70 71 72 72 73 72 72 73 73 73 72 71 71 71 71 71 71 71 72 73 73 74 74 75 76 76 77 78 78 79 80 81 82 82 83 84 84 85 86 87 87 87 88 88 88 87 87 87 86 85 84
62 63 63 62 62 64 65 64 62 61 62 62 62 62 65 67 67 66 65 65 65 65 64 64 66 65 61 61 64 64 66 68 69 69 69 70 71 71 71 72 71 71 71 70 70 70 70 69 69 69 70 70 71 72 72 73 73 74 75 76 76 77 78 79 80 81 82 83 83 84 85 86 87 87 88 88 88 87 87 86 85 84 83 82 80 79
65 65 65 63 63 65 65 64 64 64 65 66 66 67 69 68 66 66 66 66 65 64 63 64 66 64 61 62 65 66 67 67 67 67 67 69 70 70 70 70 69 69 69 68 68 68 68 67 68 68 69 70 70 71 72 73 73 74 75 76 77 78 79 80 81 82 83 83 84 85 86 87 88 88 88 87 86 85 84 82 81 79 77 76 74 72
67 68 67 66 68 69 68 69 70 69 70 73 73 70 69 68 69 70 71 68 65 62 63 65 65 64 63 65 66 67 66 66 66 66 67 67 67 67 67 67 67 67 67 67 67 67 67 67 68 68 69 69 70 71 72 73 74 75 76 77 78 79 80 81 82 82 83 85 86 87 88 88 88 87 86 85 83 81 79 77 75 73 71 69 67 66
68 69 69 70 73 74 74 74 73 70 75 80 77 71 69 70 72 74 72 69 66 64 64 65 65 65 66 67 66 66 66 67 67 67 67 67 66 66 65 65 65 66 66 66 66 66 67 67 68 68 69 70 71 72 73 74 75 76 77 78 79 80 81 81 82 83 85 86 87 88 87 87 86 84 83 80 78 75 73 70 68 66 65 64 63 63
69 71 73 74 75 76 75 73 70 72 79 81 76 72 72 73 73 73 71 69 66 65 64 64 65 65 66 65 65 66 67 68 68 68 67 67 66 65 65 65 66 66 66 66 66 66 67 67 68 69 70 71 72 72 74 75 76 78 79 80 80 81 82 83 84 85 86 86 86 86 85 83 82 80 77 74 71 69 66 65 63 62 62 62 62 62
71 72 74 74 74 74 73 72 71 74 77 75 73 74 74 74 73 72 71 69 67 65 65 66 65 65 64 65 65 66 67 67 66 66 65 64 64 64 65 65 65 65 65 65 66 66 67 68 69 70 70 71 73 74 76 77 78 80 80 81 81 82 83 84 85 85 85 85 84 83 81 80 77 75 71 68 66 64 62 61 61 61 61 62 62 63
70 71 71 71 71 70 70 71 71 73 74 74 75 74 73 72 72 71 71 70 68 67 68 68 67 65 64 65 66 66 66 66 65 63 62 63 64 65 65 64 65 65 66 66 67 67 68 69 70 71 72 74 75 77 78 79 80 81 81 82 82 83 84 84 84 83 83 82 81 80 78 75 72 69 67 64 62 61 61 61 61 62 63 63 64 65
68 69 68 68 69 69 68 69 70 72 74 74 73 71 70 71 70 69 71 71 68 67 68 68 67 66 65 65 65 65 65 66 64 62 61 63 65 65 64 65 66 66 66 66 67 68 69 71 72 74 75 76 77 79 80 80 81 81 82 82 83 82 82 82 81 81 80 79 77 75 73 70 68 65 63 62 61 61 62 63 63 64 65 65 66 66
67 68 67 68 69 70 70 70 71 72 74 73 70 68 67 67 67 67 70 71 68 65 66 66 66 66 66 65 65 64 65 65 64 62 63 65 66 65 65 66 66 66 66 67 69 70 72 74 75 76 77 78 79 80 81 81 81 81 81 81 81 80 79 79 78 77 76 75 73 70 68 66 64 63 62 62 62 63 63 64 65 66 66 67 67 67
66 66 66 68 69 69 69 70 71 72 71 70 68 66 65 65 66 67 70 71 67 63 63 64 65 65 65 65 65 65 64 65 64 63 64 65 65 65 66 66 67 68 69 70 72 74 75 76 77 78 79 80 80 81 81 80 80 80 79 78 77 77 76 75 74 73 71 69 68 66 65 63 62 62 62 63 63 64 65 66 66 67 67 68 68 69
65 65 65 66 67 67 68 69 70 71 69 68 67 65 63 64 66 67 66 66 63 61 62 62 63 64 64 64 64 63 63 62 63 63 64 64 65 66 68 69 70 70 71 73 74 76 76 77 78 79 80 80 80 79 79 78 77 76 75 74 73 72 71 70 68 67 66 65 64 63 62 62 62 62 63 64 64 65 66 67 67 68 68 69 69 69
63 63 63 64 65 66 66 67 69 71 68 65 63 61 59 61 65 64 62 62 62 62 61 61 61 62 64 64 63 62 61 62 62 63 64 66 67 68 70 72 72 73 74 75 76 77 78 79 79 80 80 79 78 77 75 74 72 71 70 68 67 66 65 64 63 62 61 61 61 61 61 61 62 63 63 64 65 66 67 68 68 68 68 68 68 68
63 63 64 64 63 64 64 66 70 71 65 59 59 60 60 62 64 63 61 62 62 61 60 61 61 62 63 64 63 62 62 63 63 64 66 68 70 71 73 74 75 75 76 76 77 78 79 79 79 79 78 76 74 72 70 68 66 64 62 61 60 60 59 58 58 58 58 59 59 60 61 61 62 63 64 65 65 66 66 67 67 67 68 68 67 67
63 63 63 62 61 63 64 65 67 66 61 58 60 61 61 62 62 61 61 60 60 61 61 62 62 62 63 63 63 63 63 63 64 66 68 71 72 73 75 76 76 77 77 77 78 78 78 78 77 76 73 70 67 65 63 61 59 57 56 55 55 55 55 55 56 57 58 58 59 60 61 62 63 64 64 65 65 65 66 66 66 66 67 66 65 64
61 60 59 59 60 62 63 63 63 62 59 58 58 58 59 60 60 60 60 60 61 62 63 63 63 63 63 63 63 64 64 65 67 69 70 72 73 74 75 76 77 77 77 77 77 76 75 74 71 68 65 62 59 57 56 55 53 52 52 52 52 52 53 54 55 56 57 58 59 60 61 62 63 64 65 65 66 66 66 66 66 65 65 64 63 62
58 57 57 58 59 60 61 61 61 60 58 57 57 58 59 60 60 60 60 61 62 63 63 63 63 63 64 64 64 65 67 68 69 71 72 73 73 74 75 76 76 76 75 74 72 70 68 66 63 60 57 55 53 51 51 51 50 50 49 50 50 51 53 54 56 57 58 59 59 60 61 62 63 64 65 66 66 66 65 65 64 63 62 62 61 60
56 56 57 58 58 59 60 60 58 57 57 57 58 58 58 59 60 61 62 63 63 64 64 64 64 65 65 66 67 68 69 70 71 72 72 72 73 73 74 73 72 70 68 66 64 62 60 57 55 52 50 49 49 49 49 49 48 48 49 49 50 52 53 55 56 57 57 58 58 59 59 60 61 63 63 63 63 63 63 62 61 60 59 58 57 57
54 54 56 57 57 58 58 58 57 57 57 56 57 58 59 60 62 63 65 65 65 65 65 65 66 67 67 68 69 70 70 70 71 71 70 70 70 70 68 66 64 62 60 59 56 54 52 51 49 47 47 47 48 48 47 47 47 48 49 50 51 53 54 54 55 56 56 57 57 58 58 59 60 60 60 60 60 59 59 58 57 56 55 55 55 55
54 54 55 56 56 56 57 58 57 57 57 58 59 60 61 63 65 66 67 67 66 66 66 66 67 68 69 69 69 69 69 69 68 67 66 65 64 62 60 58 57 56 54 51 49 48 47 46 45 45 46 46 46 46 46 46 48 49 50 51 51 52 53 54 55 55 56 56 57 57 58 58 59 59 58 57 57 55 55 54 54 53 53 54 55 55
54 54 53 54 56 57 58 57 57 58 60 61 61 62 63 65 67 68 68 67 66 66 65 66 68 69 69 68 66 66 66 65 63 61 60 59 57 55 53 52 51 50 48 46 45 45 44 44 44 45 45 45 45 46 46 47 48 49 50 51 51 52 53 54 55 55 55 56 56 56 57 57 57 57 56 55 54 53 52 52 52 53 53 54 55 57
53 52 52 55 60 61 60 59 59 61 62 61 61 62 64 66 68 68 67 65 64 63 64 66 67 67 65 63 62 61 60 58 56 55 55 54 52 50 49 48 47 46 45 45 44 44 43 44 44 45 45 45 46 46 47 48 49 50 50 51 52 53 54 54 55 55 55 55 55 56 56 56 56 56 55 54 53 52 51 51 52 54 55 56 57 58
Wind_Direction
278 278 279 283 283 278 277 279 281 283 283 283 282 282 282 282 284 285 284 282 282 281 280 279 281 282 281 280 281 282 283 284 284 285 285 284 282 281 279 277 276 274 273 273 274 276 276 276 276 276 277 279 280 280 281 281 281 281 280 279 278 277 277 277 277 278 278 278 278 278 278 278 278 279 279 279 279 278 278 277 276 275 274 274 273 273
277 277 279 281 278 276 278 280 281 281 281 282 282 281 281 282 284 284 282 282 282 282 281 279 279 278 279 281 283 285 287 288 288 288 287 285 283 280 278 276 274 272 270 271 272 273 273 274 274 275 275 276 278 279 280 281 281 282 282 281 281 280 280 279 279 279 279 279 279 278 277 276 276 276 276 276 277 277 277 277 277 276 275 274 273 273
276 277 279 278 276 277 278 279 279 280 280 281 281 280 281 283 283 282 282 282 282 283 282 280 278 277 278 281 282 285 287 288 288 287 285 284 282 279 277 274 272 270 269 271 272 272 273 273 274 274 275 277 279 280 281 281 281 280 280 280 279 279 279 279 280 280 281 280 280 280 279 278 278 277 276 276 276 277 277 278 279 278 277 276 275 274
276 277 278 277 277 278 277 277 278 279 280 280 279 280 282 282 282 282 283 284 283 283 282 281 280 279 280 281 282 284 285 284 284 283 281 280 279 278 276 274 272 270 270 272 273 273 273 274 274 276 279 281 282 282 282 281 280 279 279 278 278 278 277 277 277 278 278 278 278 278 278 278 278 277 276 276 277 278 279 281 281 281 280 279 277 276
276 277 278 278 278 277 277 277 278 279 279 279 279 280 281 281 282 284 285 284 283 283 282 283 282 281 282 283 284 284 282 281 280 278 277 277 277 276 275 274 272 271 273 274 274 274 274 276 279 281 283 284 284 283 282 281 280 280 280 280 279 279 278 278 278 278 278 278 278 278 277 276 275 274 274 274 274 275 276 278 279 280 280 279 278 277
275 277 278 278 277 277 278 278 278 278 277 277 277 279 280 280 281 282 283 282 282 282 282 282 282 282 282 282 283 282 280 279 278 277 276 276 275 274 273 272 272 273 275 275 275 276 278 282 285 286 287 287 286 285 284 283 283 283 282 282 281 281 281 280 280 280 280 279 279 279 278 276 275 274 273 273 273 273 273 273 274 275 276 277 277 277
275 277 276 276 277 277 278 278 277 275 274 276 277 278 278 278 279 279 279 279 279 280 280 280 281 282 283 283 283 281 279 278 278 277 276 276 276 275 273 272 272 274 274 275 277 280 284 288 289 290 289 288 288 288 288 287 286 285 283 282 281 281 281 281 281 281 281 280 279 279 278 277 276 275 273 273 273 273 272 272 272 273 274 274 275 275
275 274 274 275 276 277 277 276 275 274 275 277 277 276 275 276 277 276 276 276 276 277 277 278 281 283 284 284 283 281 279 279 279 278 278 278 277 274 272 271 272 274 275 278 283 288 291 292 292 291 291 290 290 290 290 289 287 285 283 281 280 280 280 280 281 281 281 280 280 279 278 277 276 275 274 273 273 272 271 270 270 271 272 273 273 273
272 272 273 274 275 275 275 274 274 275 276 277 275 275 275 275 275 274 274 274 274 275 276 278 282 283 284 283 282 282 282 281 280 280 280 280 277 275 272 272 273 276 279 285 291 295 296 296 293 291 291 291 291 291 290 288 286 284 282 281 280 279 279 279 279 279 279 279 279 279 278 276 275 274 273 273 273 272 271 270 270 270 270 270 271 271
271 272 272 272 273 274 274 274 275 276 276 276 276 276 275 274 274 273 272 272 272 274 277 280 282 282 283 284 284 285 285 284 284 284 282 280 278 276 275 275 278 282 287 292 296 298 298 297 296 294 293 293 292 291 289 287 285 284 283 282 281 280 279 279 278 278 278 277 277 276 275 275 274 273 273 273 272 271 271 271 270 270 270 270 269 269
270 271 271 271 271 272 272 273 274 275 276 277 277 276 275 274 273 272 272 273 274 277 281 281 280 280 282 286 287 288 288 290 290 287 283 281 280 279 279 281 284 288 292 296 298 299 298 297 297 297 297 296 295 293 291 289 286 284 283 282 281 280 279 279 278 277 277 276 275 274 274 273 272 272 272 271 271 271 271 270 270 270 270 269 269 269
269 269 269 269 270 271 272 272 273 275 277 278 277 276 275 274 274 273 274 274 277 281 283 281 280 280 283 286 289 291 293 294 292 289 286 285 284 284 284 286 288 291 294 297 298 299 298 297 297 297 297 297 295 294 292 290 288 286 283 281 280 279 278 278 278 277 276 276 275 274 274 273 272 271 271 271 271 270 270 270 270 269 269 269 269 268
268 268 268 269 270 272 272 272 273 275 277 277 276 276 276 276 275 276 277 277 279 281 281 281 282 283 285 288 291 294 295 294 292 291 290 288 287 287 286 287 289 291 294 296 298 297 297 296 296 295 295 294 293 292 291 289 288 286 285 283 282 280 279 278 277 277 276 276 276 275 274 273 272 271 270 270 270 270 269 269 269 269 268 268 268 268
267 267 268 270 272 272 271 271 272 273 274 275 275 275 276 276 276 279 281 280 281 282 283 284 285 285 288 290 292 293 292 291 291 290 289 288 287 286 286 287 289 291 294 296 297 296 295 295 295 294 293 292 291 290 289 288 287 286 286 285 284 283 281 280 279 278 278 277 277 276 275 275 273 272 271 270 270 269 269 268 268 268 268 268 268 268
267 267 269 271 271 271 270 269 270 271 272 274 274 274 275 275 275 279 281 281 284 286 287 288 287 288 291 292 292 290 289 288 288 287 285 285 285 285 286 287 288 290 292 294 295 294 293 293 293 292 291 290 289 289 288 288 287 287 286 286 285 284 283 282 281 280 279 278 278 278 277 276 276 275 274 273 272 271 270 270 269 268 268 268 268 269
267 267 268 269 270 270 269 269 270 271 272 272 273 273 274 273 272 274 277 281 285 287 288 288 288 289 290 289 289 288 287 286 285 283 283 282 283 284 285 285 285 286 289 292 293 291 291 291 290 290 289 289 288 288 288 288 287 287 285 285 284 283 283 282 281 281 280 280 280 279 278 278 277 277 276 275 275 274 273 273 271 270 270 269 269 269
266 266 266 267 268 269 269 270 270 270 270 271 272 272 272 271 269 271 276 281 283 284 287 288 288 288 288 286 286 285 285 285 283 283 283 283 284 285 285 284 284 285 288 290 291 290 289 289 289 288 288 288 288 288 288 287 286 285 284 283 283 283 282 282 282 281 281 281 280 279 279 278 278 278 278 277 276 275 275 274 273 272 272 271 271 270
265 267 268 268 269 269 269 269 270 270 270 270 272 273 272 270 270 273 276 280 281 282 285 288 287 287 286 285 285 284 284 283 283 283 284 285 286 286 285 285 285 287 289 289 289 289 288 288 288 288 288 289 289 289 288 287 286 285 284 284 284 283 283 282 282 281 281 281 281 280 280 279 279 280 280 279 278 277 277 276 276 275 274 273 272 272
265 267 269 270 270 270 271 271 271 271 272 273 275 275 273 272 273 275 275 278 280 281 284 287 288 289 288 286 284 283 282 282 282 282 283 284 285 285 285 285 287 288 288 288 288 288 288 288 289 289 290 290 289 288 287 285 284 284 283 283 283 283 282 281 281 281 281 281 281 280 280 280 280 281 281 280 280 279 279 278 278 277 277 276 275 275
266 267 269 272 273 273 274 274 274 275 275 274 274 274 273 273 274 274 275 278 280 281 283 286 288 290 290 287 284 282 281 282 282 282 282 283 284 285 286 287 288 288 288 288 288 288 288 288 288 289 289 288 287 286 284 284 283 283 282 282 281 281 281 281 281 280 280 280 280 280 279 279 280 280 280 280 280 280 280 280 280 280 280 280 280 279
269 271 273 275 274 275 276 277 277 276 274 273 273 275 275 274 273 275 276 278 279 279 281 283 285 288 288 286 284 283 284 284 282 282 282 284 285 286 287 288 288 288 288 288 287 287 288 288 289 289 288 287 286 285 284 284 284 283 282 282 281 281 281 281 280 280 280 280 280 280 280 280 280 280 281 281 281 282 282 282 283 283 283 283 283 282
273 275 275 276 276 278 279 278 277 275 274 275 274 274 274 273 274 274 275 277 277 277 278 278 280 285 287 286 286 287 286 284 282 283 284 285 286 287 288 289 289 289 288 288 288 288 289 290 290 289 288 287 286 286 285 285 284 283 282 282 281 281 280 280 280 280 280 280 281 281 281 281 282 282 283 283 283 283 284 284 284 284 284 284 284 283
274 274 275 277 279 280 280 279 277 275 274 273 272 273 274 274 275 274 274 276 274 274 275 274 277 284 286 284 286 287 285 283 283 284 285 285 287 288 289 289 288 288 287 288 289 289 290 289 289 288 287 287 287 286 285 284 283 283 283 282 282 281 281 281 281 281 281 281 282 282 282 283 283 284 284 284 285 285 285 285 285 285 285 285 285 284
271 272 275 277 278 278 278 277 277 275 274 274 276 278 277 275 274 272 273 273 272 274 277 275 277 283 284 284 286 285 283 282 283 284 285 286 288 289 288 288 287 286 287 288 289 288 288 288 288 287 287 286 286 285 284 284 284 283 283 283 283 282 282 282 282 282 282 282 282 282 283 283 284 285 285 286 286 287 287 287 287 287 286 286 285 285
269 270 272 273 273 274 274 275 276 277 278 277 277 276 273 272 272 272 272 273 273 277 278 275 277 282 284 285 284 282 281 283 283 284 285 287 288 287 286 286 285 286 287 288 287 287 287 287 287 287 286 285 285 285 284 284 284 284 283 283 283 283 282 282 282 282 282 282 283 284 285 286 286 287 288 288 288 289 288 288 288 287 287 287 286 286
269 269 269 270 271 273 275 276 277 277 275 273 272 272 272 273 274 274 274 273 275 277 276 275 279 281 282 284 283 281 282 284 284 285 286 286 286 285 284 285 286 287 287 287 286 287 287 287 286 286 285 285 285 285 284 284 284 284 284 283 283 283 283 283 283 284 284 285 286 287 287 288 288 289 289 290 290 289 289 289 289 288 288 287 287 286
268 268 269 270 272 275 276 275 274 273 272 271 271 272 272 273 274 274 274 274 276 277 275 277 280 281 282 284 283 283 284 284 285 286 286 284 284 284 285 286 287 287 286 286 287 287 286 286 285 286 286 285 285 284 284 284 284 284 284 284 284 284 284 285 286 286 287 287 288 288 289 289 290 290 290 290 290 290 290 290 289 289 289 288 288 287
267 268 269 269 270 272 271 269 269 270 270 270 270 270 271 272 272 273 274 276 277 276 277 282 283 282 284 286 284 284 285 285 285 284 283 283 284 285 285 286 286 286 286 286 286 285 285 285 286 286 285 285 285 285 285 285 285 285 285 285 286 286 287 287 287 288 288 289 289 289 290 290 290 291 291 291 291 291 290 290 289 289 289 289 288 288
263 265 266 265 266 267 266 265 266 266 267 268 268 268 270 271 272 273 274 276 277 277 281 285 283 282 286 287 285 285 285 284 283 282 282 283 283 284 284 284 285 285 285 284 284 284 285 285 284 284 284 285 285 285 285 285 286 286 286 287 287 288 288 288 289 289 289 289 289 290 290 291 291 291 291 291 291 291 290 290 290 289 289 289 289 289
256 258 260 260 261 263 264 264 264 264 265 266 266 268 271 272 273 275 276 279 281 282 284 284 282 283 286 285 283 283 283 282 281 280 281 282 282 282 282 282 283 283 283 283 283 284 284 283 284 284 285 286 286 286 286 286 287 287 288 288 288 288 288 289 289 289 289 289 290 290 291 291 291 292 291 291 291 291 291 290 290 290 290 290 290 290
254 255 256 256 257 259 260 261 263 264 266 268 269 270 271 272 274 277 281 283 283 284 284 283 282 284 285 284 282 281 279 279 279 280 281 281 281 280 281 281 282 283 283 283 283 284 284 284 285 285 286 286 286 286 287 287 287 288 288 288 288 288 289 289 289 289 289 290 290 291 291 292 292 292 292 292 292 292 292 292 292 292 292 292 291 291
256 256 256 255 256 258 258 261 264 267 270 272 269 268 271 275 279 282 283 283 283 284 283 281 282 283 283 281 279 278 278 279 280 281 281 280 281 281 282 282 283 283 283 283 284 284 284 285 286 286 286 286 286 286 287 287 287 288 288 288 288 289 289 289 289 289 290 291 291 292 292 293 293 293 293 293 293 293 293 293 293 293 293 292 292 291
257 258 258 258 261 262 261 264 269 273 275 272 269 270 275 279 281 282 282 283 284 283 282 281 282 283 281 279 278 278 279 280 280 280 280 281 281 282 282 282 282 282 282 283 283 284 285 285 286 286 286 286 286 287 287 287 288 288 288 288 288 288 289 289 289 290 291 291 292 292 293 293 293 293 294 294 294 294 294 294 294 293 293 292 292 292
257 258 259 261 267 269 268 271 275 276 275 272 272 276 280 281 281 282 282 284 284 283 282 282 282 281 280 279 279 279 279 279 280 280 280 281 281 281 281 281 281 281 281 282 283 284 285 285 285 285 286 287 287 287 288 288 288 288 288 289 289 289 289 290 290 291 292 292 293 293 293 294 294 294 294 294 294 294 294 294 293 293 292 292 292 291
258 260 262 265 270 273 275 276 277 276 275 276 277 280 281 281 282 282 283 284 284 283 282 281 280 279 278 278 279 279 279 279 279 279 280 280 280 280 280 280 280 280 281 283 283 284 284 284 285 286 286 287 287 287 288 288 288 289 289 289 289 290 290 291 292 292 293 293 293 293 293 293 293 293 293 293 294 293 293 293 292 292 292 292 292 292
262 264 267 269 272 276 277 278 278 279 280 280 280 281 281 282 283 284 284 285 284 283 282 281 280 279 279 279 280 279 279 279 279 279 280 280 280 279 279 280 281 282 283 283 283 283 284 285 285 286 286 286 287 287 288 288 288 289 289 290 290 291 291 292 292 293 293 293 293 293 293 293 293 293 293 293 293 293 293 293 293 293 293 293 293 293
266 267 270 273 275 276 278 279 280 281 281 281 282 283 284 285 285 285 284 283 283 283 283 282 281 281 281 280 280 279 280 279 280 280 280 279 278 279 280 281 282 282 283 283 283 284 284 285 285 285 286 286 287 288 288 288 289 290 290 291 291 292 292 292 293 293 293 292 292 292 292 292 293 293 293 293 293 293 293 294 294 294 294 294 294 294
269 270 272 274 276 276 277 277 277 278 279 281 283 284 285 284 283 283 282 281 282 283 282 281 281 281 281 280 279 279 279 279 280 280 279 278 279 280 282 282 282 282 282 283 283 284 284 285 285 285 286 287 288 288 289 290 290 291 291 291 292 292 292 292 292 292 292 292 292 292 292 293 293 293 294 294 294 294 294 294 294 294 294 294 294 294
271 272 274 274 275 275 275 275 275 276 278 280 282 282 282 281 280 279 278 278 281 280 279 279 279 279 278 278 278 278 278 279 280 280 278 279 280 282 282 282 282 282 283 283 284 284 285 285 286 287 288 288 289 289 290 291 291 291 292 292 292 292 292 292 292 292 291 292 292 293 293 294 294 294 294 294 294 294 294 294 294 295 295 295 295 295
273 273 273 273 273 274 274 274 274 275 277 280 281 280 279 278 277 275 275 278 281 278 274 274 274 275 275 276 277 277 278 279 279 279 279 281 282 282 282 282 282 282 283 284 285 285 285 286 288 289 289 290 290 290 291 291 291 292 292 292 292 292 291 291 291 291 292 292 293 293 294 294 294 294 294 294 294 294 294 294 294 295 295 295 295 296
274 274 273 273 274 274 274 274 274 275 278 281 281 280 279 277 275 274 275 278 278 275 273 273 274 275 275 275 276 277 278 279 280 280 281 282 282 282 282 282 282 283 284 285 285 286 287 288 289 290 290 290 291 291 291 291 291 292 292 292 291 291 291 291 291 292 292 293 293 294 294 294 294 294 294 294 294 294 294 294 294 294 295 295 296 296
273 273 272 272 273 273 274 274 274 276 280 283 282 280 277 274 273 273 274 274 274 275 276 276 276 276 275 275 276 278 278 279 281 282 282 283 283 282 282 283 284 285 285 286 287 288 289 289 290 290 291 291 291 291 291 291 291 291 291 291 291 291 291 291 292 292 293 293 293 293 294 294 294 294 294 294 294 294 294 294 294 295 295 296 296 297
271 270 271 272 273 273 273 273 275 278 282 281 277 275 273 272 274 275 275 275 276 277 277 276 275 275 275 277 278 278 279 281 282 283 283 283 283 284 284 285 286 286 287 288 288 289 289 290 290 291 290 291 291 291 291 291 291 291 291 291 290 290 291 291 292 292 293 293 293 294 294 294 294 294 294 294 294 294 294 294 295 296 296 297 297 297
270 270 272 273 273 272 272 273 276 279 279 276 274 275 276 276 276 276 276 276 276 275 274 274 275 276 277 278 279 280 281 282 283 283 283 283 284 285 286 286 287 288 288 289 289 290 290 291 291 290 290 290 290 290 290 290 290 290 290 289 290 290 291 292 293 293 294 294 294 294 294 294 294 294 294 294 294 294 295 295 296 297 297 297 298 298
271 272 272 272 271 272 273 274 276 277 277 276 277 277 276 276 275 275 275 274 274 273 274 275 276 277 278 279 280 282 283 283 283 283 284 284 285 286 286 287 288 289 290 290 291 291 291 290 290 290 290 290 290 290 290 289 289 290 290 290 291 293 293 294 294 294 294 295 295 295 295 295 294 294 294 294 294 295 295 296 297 297 298 298 298 298
271 271 271 271 272 272 273 274 275 276 277 277 276 275 274 275 275 274 273 273 273 274 275 277 277 279 280 281 283 283 283 284 284 284 284 285 286 287 288 289 290 291 291 292 292 291 291 290 291 291 291 291 290 289 289 289 290 291 292 293 293 294 294 295 295 296 296 297 297 297 296 296 296 296 296 295 295 295 296 296 297 297 298 298 298 298
270 270 271 271 272 272 273 275 276 276 276 275 275 274 274 274 273 273 273 274 275 276 277 278 279 280 281 283 283 283 284 284 285 285 286 287 288 289 290 291 291 292 292 292 292 292 292 292 293 292 291 290 290 289 290 291 292 292 293 294 294 295 296 297 298 299 299 299 299 299 298 298 298 298 298 297 297 297 297 297 298 298 298 298 298 298
269 269 270 271 272 274 275 276 275 275 275 274 274 273 273 273 273 274 274 275 277 278 279 280 281 282 282 283 284 284 285 286 287 288 289 289 290 291 292 292 293 294 294 293 294 294 294 294 293 292 291 290 290 290 291 292 293 293 294 295 296 297 299 300 301 302 302 302 301 301 300 300 300 300 299 299 299 299 299 299 299 299 299 299 298 299
268 269 271 274 275 275 276 276 276 275 274 272 272 272 273 274 274 275 276 278 279 280 281 281 282 282 283 284 285 287 287 289 290 290 290 291 292 293 294 295 296 296 296 296 296 295 295 294 293 291 291 290 290 291 292 293 294 295 296 298 299 301 302 304 305 306 305 304 304 303 302 302 301 301 301 300 300 300 300 300 300 300 299 299 300 300
269 272 274 275 275 275 274 274 273 273 272 272 273 275 275 276 276 277 279 280 281 281 282 282 282 283 285 286 288 289 290 290 290 290 291 293 295 297 298 298 298 298 298 297 297 296 295 294 292 291 291 291 291 292 293 294 295 297 299 301 303 304 305 306 307 307 307 306 305 304 304 303 303 302 301 301 301 301 301 301 300 300 300 300 301 301
271 273 274 274 273 272 271 272 272 273 273 274 275 276 276 277 278 279 280 281 281 282 281 281 283 285 287 289 290 290 290 290 290 291 294 297 299 301 301 301 300 299 298 296 296 296 296 295 294 293 292 292 292 293 294 296 297 299 301 303 304 305 305 306 307 308 308 307 306 306 305 304 304 303 302 301 301 301 301 301 302 302 302 302 302 303
Height
5812 5811 5813 5816 5816 5813 5811 5811 5811 5812 5812 5812 5811 5811 5811 5811 5813 5813 5811 5809 5809 5809 5811 5810 5809 5810 5809 5808 5808 5809 5809 5808 5808 5807 5807 5806 5806 5806 5806 5805 5805 5804 5804 5804 5803 5802 5802 5801 5801 5801 5800 5800 5800 5799 5799 5798 5798 5797 5797 5796 5796 5795 5794 5794 5793 5792 5792 5791 5790 5790 5789 5788 5788 5787 5786 5785 5785 5784 5783 5782 5782 5781 5780 5779 5778 5777
5807 5806 5810 5812 5810 5807 5807 5808 5808 5808 5808 5808 5808 5807 5807 5807 5808 5807 5806 5805 5804 5804 5805 5806 5806 5806 5805 5805 5805 5804 5804 5803 5803 5802 5802 5802 5802 5803 5802 5802 5802 5801 5801 5800 5800 5799 5798 5797 5797 5797 5797 5797 5796 5796 5796 5795 5794 5793 5793 5792 5791 5791 5790 5789 5789 5788 5787 5786 5785 5785 5784 5783 5783 5782 5781 5780 5779 5778 5777 5777 5776 5775 5775 5774 5773 5772
5802 5803 5806 5807 5804 5804 5804 5804 5803 5803 5804 5804 5803 5803 5803 5804 5803 5801 5801 5800 5800 5799 5800 5801 5802 5802 5801 5801 5801 5800 5800 5799 5798 5798 5798 5798 5798 5798 5798 5798 5798 5798 5797 5797 5796 5795 5794 5794 5794 5793 5793 5793 5793 5792 5792 5791 5790 5790 5789 5788 5787 5786 5786 5785 5784 5783 5782 5781 5780 5779 5778 5778 5777 5776 5776 5775 5774 5773 5772 5771 5771 5770 5769 5768 5768 5767
5797 5799 5801 5801 5800 5800 5799 5799 5799 5799 5799 5799 5798 5798 5799 5799 5797 5795 5796 5796 5795 5795 5795 5795 5796 5797 5797 5797 5797 5797 5797 5795 5795 5795 5794 5794 5794 5794 5794 5794 5794 5793 5793 5792 5792 5791 5791 5790 5790 5790 5789 5788 5788 5787 5787 5786 5786 5785 5784 5784 5783 5782 5781 5780 5780 5779 5777 5776 5776 5774 5773 5772 5772 5771 5770 5769 5768 5768 5767 5766 5765 5764 5763 5763 5762 5761
5793 5795 5796 5796 5795 5794 5794 5795 5795 5795 5794 5794 5794 5794 5794 5793 5792 5791 5791 5791 5790 5791 5791 5791 5791 5792 5793 5794 5794 5794 5793 5792 5792 5791 5791 5790 5790 5789 5789 5789 5789 5788 5788 5788 5787 5787 5787 5786 5786 5785 5784 5784 5783 5782 5782 5781 5781 5780 5780 5779 5778 5777 5776 5775 5775 5774 5773 5772 5771 5770 5769 5768 5767 5766 5765 5764 5763 5762 5762 5761 5759 5758 5757 5756 5756 5755
5789 5791 5791 5790 5790 5789 5789 5790 5791 5790 5789 5789 5790 5790 5789 5788 5788 5787 5787 5786 5786 5786 5786 5786 5786 5787 5789 5790 5791 5790 5789 5788 5788 5788 5787 5787 5786 5786 5785 5785 5784 5784 5783 5783 5783 5783 5782 5782 5781 5780 5779 5778 5778 5777 5776 5776 5775 5775 5774 5773 5772 5772 5771 5770 5769 5768 5767 5766 5766 5765 5763 5762 5762 5761 5760 5759 5758 5757 5756 5755 5754 5753 5751 5750 5749 5748
5786 5787 5786 5785 5785 5785 5785 5786 5786 5785 5784 5785 5786 5786 5784 5784 5784 5783 5783 5782 5781 5781 5782 5782 5781 5782 5783 5785 5786 5786 5784 5784 5784 5784 5783 5782 5782 5782 5781 5780 5780 5780 5779 5779 5778 5778 5778 5777 5775 5774 5774 5773 5772 5772 5771 5771 5770 5769 5768 5768 5767 5766 5765 5764 5763 5762 5762 5761 5760 5759 5758 5757 5756 5755 5754 5753 5752 5751 5750 5748 5747 5746 5745 5744 5743 5742
5782 5781 5781 5781 5781 5781 5781 5781 5781 5780 5780 5782 5783 5781 5780 5780 5780 5779 5779 5778 5777 5777 5777 5777 5778 5778 5778 5779 5780 5780 5779 5779 5779 5778 5778 5778 5777 5777 5776 5776 5776 5775 5775 5774 5773 5772 5771 5771 5770 5769 5768 5768 5767 5766 5766 5765 5764 5763 5763 5762 5761 5760 5759 5758 5757 5756 5755 5754 5753 5753 5752 5750 5749 5748 5747 5746 5745 5744 5743 5742 5741 5740 5739 5738 5736 5735
5776 5776 5776 5776 5776 5777 5777 5776 5776 5776 5777 5778 5778 5777 5776 5776 5775 5775 5774 5773 5773 5773 5772 5774 5775 5774 5772 5772 5773 5774 5774 5774 5774 5773 5773 5772 5772 5771 5771 5771 5771 5770 5769 5768 5767 5766 5765 5764 5764 5764 5764 5763 5762 5761 5761 5759 5758 5757 5756 5756 5755 5754 5753 5752 5751 5750 5749 5748 5747 5746 5745 5744 5743 5742 5741 5740 5739 5738 5737 5736 5735 5733 5732 5731 5730 5728
5770 5771 5772 5772 5772 5772 5772 5772 5773 5773 5773 5774 5773 5773 5772 5772 5771 5770 5770 5769 5769 5768 5768 5771 5772 5769 5766 5765 5766 5767 5768 5768 5768 5768 5767 5766 5766 5766 5766 5765 5765 5764 5763 5762 5761 5760 5759 5758 5757 5757 5757 5757 5757 5756 5755 5754 5752 5751 5750 5749 5748 5747 5747 5746 5745 5744 5743 5742 5741 5739 5738 5737 5736 5735 5734 5733 5732 5731 5730 5729 5728 5727 5725 5724 5723 5722
5766 5766 5767 5767 5768 5768 5768 5768 5769 5769 5769 5770 5770 5769 5769 5767 5767 5766 5765 5765 5764 5763 5765 5767 5766 5764 5761 5760 5760 5761 5761 5762 5762 5762 5761 5761 5760 5760 5760 5759 5758 5757 5756 5755 5754 5754 5753 5752 5751 5750 5749 5749 5748 5748 5747 5746 5746 5745 5744 5743 5742 5741 5740 5739 5738 5737 5736 5735 5734 5732 5731 5730 5729 5728 5727 5726 5725 5724 5723 5721 5720 5719 5718 5717 5715 5714
5761 5762 5762 5763 5763 5763 5764 5764 5765 5765 5766 5766 5766 5765 5765 5763 5763 5762 5762 5761 5761 5760 5761 5761 5759 5758 5757 5756 5756 5756 5756 5756 5756 5755 5755 5755 5755 5754 5754 5753 5752 5751 5750 5749 5749 5748 5748 5747 5745 5744 5742 5741 5740 5740 5739 5739 5738 5738 5737 5736 5736 5734 5733 5732 5731 5730 5728 5727 5726 5725 5724 5723 5722 5721 5720 5719 5718 5716 5715 5714 5712 5711 5710 5708 5707 5705
5757 5757 5758 5758 5759 5759 5760 5760 5761 5761 5761 5761 5761 5760 5760 5759 5758 5758 5758 5758 5757 5756 5756 5755 5753 5752 5752 5752 5753 5752 5751 5750 5749 5749 5749 5749 5748 5748 5747 5747 5746 5745 5744 5744 5743 5743 5742 5741 5740 5738 5737 5735 5734 5733 5732 5732 5731 5730 5729 5728 5728 5727 5726 5725 5723 5722 5720 5719 5718 5717 5716 5715 5715 5714 5713 5711 5710 5709 5707 5706 5704 5702 5701 5699 5698 5696
5752 5753 5754 5754 5755 5755 5755 5755 5755 5755 5755 5755 5755 5755 5755 5754 5753 5753 5753 5752 5752 5752 5752 5751 5749 5747 5747 5749 5749 5748 5746 5745 5744 5744 5743 5743 5742 5742 5741 5741 5740 5740 5739 5738 5737 5736 5736 5734 5733 5732 5731 5729 5728 5727 5726 5725 5724 5723 5721 5720 5719 5718 5717 5716 5715 5714 5713 5711 5710 5709 5708 5707 5706 5705 5704 5703 5702 5700 5699 5697 5695 5693 5692 5690 5688 5687
5747 5748 5749 5750 5750 5750 5750 5750 5750 5749 5749 5749 5749 5749 5748 5749 5748 5748 5747 5746 5745 5746 5747 5746 5744 5743 5744 5744 5744 5743 5742 5741 5741 5739 5738 5738 5737 5736 5736 5735 5735 5735 5734 5733 5732 5731 5729 5728 5727 5725 5724 5723 5721 5720 5719 5718 5717 5716 5714 5713 5711 5709 5708 5707 5706 5705 5704 5703 5702 5701 5700 5699 5697 5696 5696 5694 5693 5692 5690 5688 5687 5685 5683 5681 5679 5677
5741 5742 5744 5744 5745 5745 5745 5745 5745 5744 5744 5744 5744 5743 5743 5744 5744 5742 5740 5739 5739 5739 5740 5740 5739 5740 5740 5739 5738 5737 5736 5736 5736 5734 5734 5733 5733 5732 5731 5731 5730 5729 5728 5727 5726 5725 5723 5721 5720 5719 5717 5716 5714 5713 5712 5711 5710 5708 5706 5704 5703 5701 5700 5698 5697 5696 5695 5694 5693 5692 5691 5689 5688 5687 5686 5685 5683 5682 5680 5679 5677 5675 5674 5672 5670 5668
5735 5736 5737 5738 5739 5740 5740 5740 5739 5739 5738 5738 5738 5738 5738 5739 5737 5735 5734 5734 5733 5732 5734 5735 5735 5735 5735 5733 5733 5732 5731 5730 5729 5728 5728 5728 5728 5727 5726 5725 5724 5722 5722 5721 5719 5718 5716 5714 5713 5711 5710 5708 5707 5706 5704 5703 5701 5699 5698 5696 5694 5693 5691 5690 5689 5687 5686 5684 5683 5682 5681 5680 5679 5678 5676 5675 5673 5672 5670 5668 5667 5665 5663 5661 5659 5657
5729 5730 5731 5732 5733 5733 5734 5734 5733 5733 5732 5733 5733 5734 5733 5731 5729 5729 5727 5728 5727 5726 5728 5729 5729 5730 5729 5727 5727 5726 5725 5724 5723 5722 5722 5722 5722 5721 5719 5717 5716 5715 5715 5714 5712 5710 5708 5706 5705 5703 5702 5701 5699 5698 5696 5694 5692 5690 5689 5687 5686 5685 5683 5681 5680 5678 5676 5675 5674 5673 5671 5670 5669 5667 5666 5664 5662 5661 5659 5657 5656 5654 5652 5651 5649 5647
5724 5724 5725 5725 5726 5727 5728 5728 5727 5726 5727 5728 5728 5728 5726 5724 5723 5723 5722 5722 5722 5720 5721 5722 5723 5723 5721 5721 5721 5720 5718 5717 5716 5717 5717 5717 5716 5713 5712 5710 5709 5709 5707 5706 5704 5702 5700 5698 5697 5696 5694 5693 5691 5689 5687 5685 5683 5682 5681 5679 5678 5676 5674 5673 5671 5669 5668 5666 5665 5663 5661 5660 5658 5657 5655 5653 5651 5649 5648 5646 5644 5643 5641 5640 5638 5636
5718 5718 5718 5719 5720 5720 5720 5721 5721 5722 5723 5722 5721 5721 5720 5717 5717 5717 5717 5717 5717 5715 5714 5715 5716 5716 5715 5714 5713 5712 5712 5711 5711 5712 5712 5711 5709 5706 5704 5704 5703 5702 5699 5698 5697 5694 5693 5691 5690 5689 5687 5685 5683 5681 5679 5677 5676 5675 5673 5671 5669 5667 5666 5664 5662 5660 5658 5657 5655 5653 5652 5650 5648 5646 5644 5643 5641 5639 5637 5636 5634 5632 5630 5629 5627 5625
5710 5710 5711 5712 5712 5712 5713 5715 5716 5717 5716 5715 5715 5714 5714 5712 5711 5711 5711 5712 5711 5708 5708 5707 5708 5711 5709 5705 5704 5705 5707 5706 5705 5706 5705 5703 5701 5698 5697 5697 5695 5693 5691 5690 5688 5686 5685 5684 5682 5681 5679 5676 5674 5672 5670 5669 5667 5666 5664 5662 5660 5658 5657 5655 5652 5650 5649 5647 5646 5644 5642 5640 5638 5636 5634 5632 5631 5629 5627 5625 5623 5621 5619 5617 5616 5614
5703 5703 5703 5704 5704 5705 5708 5709 5710 5709 5709 5709 5708 5708 5708 5708 5707 5705 5704 5706 5705 5702 5702 5699 5698 5704 5705 5698 5696 5699 5702 5700 5698 5698 5696 5694 5692 5691 5690 5689 5687 5685 5682 5680 5679 5678 5676 5675 5673 5670 5668 5666 5664 5663 5661 5659 5658 5656 5655 5653 5651 5650 5648 5645 5643 5641 5640 5638 5636 5634 5632 5629 5627 5625 5624 5622 5620 5619 5617 5615 5613 5611 5608 5606 5604 5602
5696 5695 5696 5696 5697 5699 5701 5701 5702 5702 5701 5701 5700 5702 5703 5702 5702 5699 5696 5700 5699 5695 5695 5689 5687 5696 5700 5695 5693 5693 5693 5693 5691 5690 5687 5685 5684 5683 5683 5681 5678 5676 5674 5672 5672 5670 5668 5666 5663 5661 5659 5657 5655 5653 5651 5649 5648 5646 5645 5644 5642 5640 5638 5636 5634 5632 5630 5628 5626 5624 5621 5619 5617 5615 5614 5612 5610 5608 5606 5604 5601 5599 5597 5594 5592 5589
5689 5689 5690 5691 5692 5693 5693 5693 5694 5693 5693 5693 5694 5697 5697 5695 5695 5693 5690 5691 5689 5687 5687 5681 5678 5687 5692 5691 5690 5687 5684 5686 5684 5681 5679 5676 5676 5676 5674 5672 5669 5667 5666 5665 5664 5662 5659 5657 5654 5652 5650 5648 5646 5644 5642 5640 5638 5637 5636 5634 5632 5630 5628 5626 5624 5622 5620 5618 5616 5614 5612 5609 5608 5606 5604 5602 5600 5597 5595 5592 5590 5587 5584 5582 5580 5577
5683 5683 5684 5685 5685 5686 5686 5686 5687 5688 5688 5688 5689 5689 5688 5688 5688 5685 5683 5682 5678 5679 5681 5674 5672 5680 5685 5685 5684 5679 5677 5678 5676 5673 5672 5670 5668 5667 5664 5662 5660 5659 5659 5657 5655 5652 5650 5648 5645 5643 5640 5638 5637 5635 5633 5631 5630 5629 5627 5625 5623 5621 5619 5616 5614 5612 5610 5608 5606 5604 5602 5600 5598 5596 5594 5591 5589 5586 5583 5580 5578 5575 5572 5570 5567 5565
5676 5676 5677 5677 5677 5677 5678 5679 5680 5682 5682 5680 5680 5680 5680 5680 5680 5678 5677 5674 5669 5670 5672 5669 5668 5674 5680 5678 5674 5671 5671 5669 5667 5665 5665 5664 5660 5657 5655 5653 5653 5652 5650 5648 5645 5643 5641 5639 5636 5633 5631 5629 5627 5626 5624 5623 5621 5620 5618 5616 5614 5611 5609 5606 5604 5602 5600 5598 5596 5594 5592 5590 5588 5585 5583 5581 5578 5575 5572 5569 5566 5562 5560 5557 5555 5552
5668 5668 5668 5669 5669 5670 5671 5671 5672 5673 5672 5671 5672 5674 5673 5673 5673 5671 5669 5666 5664 5662 5663 5666 5666 5665 5671 5671 5664 5663 5664 5661 5659 5657 5655 5653 5650 5647 5646 5646 5645 5643 5640 5638 5637 5634 5632 5629 5626 5625 5623 5620 5619 5617 5615 5614 5613 5611 5609 5606 5603 5601 5599 5596 5594 5592 5590 5588 5586 5583 5582 5579 5577 5575 5572 5570 5566 5563 5560 5557 5553 5550 5547 5544 5542 5539
5660 5660 5661 5661 5661 5663 5663 5663 5663 5663 5663 5664 5665 5666 5667 5667 5666 5665 5661 5659 5659 5655 5653 5660 5660 5655 5661 5663 5656 5653 5655 5652 5650 5649 5646 5644 5642 5639 5638 5636 5635 5634 5632 5630 5628 5625 5622 5620 5618 5616 5613 5611 5610 5608 5607 5605 5603 5601 5599 5596 5594 5591 5589 5587 5584 5582 5579 5577 5575 5573 5571 5569 5567 5564 5561 5558 5555 5552 5548 5545 5541 5538 5535 5532 5529 5527
5651 5652 5655 5654 5653 5655 5655 5654 5656 5655 5655 5656 5656 5658 5661 5661 5659 5657 5655 5653 5652 5648 5647 5652 5650 5646 5653 5655 5647 5645 5645 5642 5641 5639 5637 5637 5635 5631 5628 5625 5625 5625 5624 5621 5619 5616 5615 5612 5610 5607 5605 5603 5602 5599 5597 5595 5593 5591 5589 5587 5585 5582 5580 5577 5574 5572 5569 5567 5565 5563 5561 5558 5556 5553 5550 5547 5544 5540 5537 5533 5530 5526 5523 5520 5517 5515
5643 5644 5648 5647 5644 5647 5647 5646 5648 5648 5647 5648 5649 5652 5655 5654 5651 5649 5647 5646 5644 5641 5641 5642 5638 5639 5647 5645 5639 5638 5636 5632 5631 5630 5630 5629 5627 5624 5620 5617 5616 5615 5614 5612 5610 5608 5607 5604 5601 5599 5597 5595 5593 5590 5588 5585 5583 5582 5579 5577 5575 5573 5570 5568 5565 5562 5559 5557 5554 5552 5550 5547 5544 5542 5539 5536 5532 5529 5525 5522 5518 5515 5511 5508 5506 5503
5638 5637 5640 5640 5636 5637 5640 5640 5639 5640 5639 5639 5642 5647 5647 5644 5643 5643 5642 5640 5637 5633 5634 5633 5628 5632 5639 5636 5630 5629 5626 5622 5622 5623 5622 5619 5616 5614 5613 5611 5609 5607 5604 5602 5601 5599 5597 5595 5593 5591 5589 5587 5584 5582 5579 5577 5575 5573 5571 5568 5566 5564 5561 5558 5555 5552 5549 5546 5544 5541 5539 5536 5533 5530 5527 5523 5520 5517 5513 5509 5506 5503 5500 5497 5494 5491
5633 5631 5632 5633 5627 5627 5634 5634 5631 5632 5631 5628 5634 5641 5640 5637 5638 5638 5634 5632 5630 5627 5626 5623 5620 5624 5630 5626 5620 5618 5617 5615 5615 5615 5612 5609 5606 5604 5604 5603 5601 5598 5596 5594 5592 5590 5589 5587 5585 5583 5581 5578 5575 5573 5571 5568 5566 5564 5562 5560 5557 5554 5551 5548 5545 5542 5539 5536 5533 5530 5527 5524 5521 5518 5514 5511 5508 5504 5501 5498 5494 5491 5489 5486 5483 5480
5627 5625 5626 5625 5618 5618 5625 5625 5622 5623 5618 5616 5628 5637 5635 5632 5632 5627 5623 5624 5623 5620 5616 5613 5613 5616 5617 5613 5610 5610 5609 5608 5607 5605 5603 5600 5598 5596 5595 5594 5592 5589 5588 5586 5585 5583 5581 5579 5577 5575 5572 5570 5567 5564 5562 5559 5557 5555 5553 5550 5548 5545 5541 5538 5535 5532 5528 5525 5522 5519 5516 5512 5509 5506 5502 5499 5496 5493 5490 5487 5484 5481 5479 5476 5473 5471
5621 5619 5619 5618 5611 5608 5614 5616 5613 5608 5604 5610 5624 5628 5625 5624 5621 5614 5613 5616 5616 5611 5608 5606 5606 5606 5603 5601 5602 5602 5601 5600 5598 5597 5595 5593 5591 5589 5587 5586 5583 5582 5580 5579 5578 5576 5574 5571 5569 5566 5564 5561 5558 5556 5553 5550 5548 5545 5543 5540 5537 5534 5531 5528 5525 5521 5517 5514 5511 5507 5504 5501 5498 5495 5491 5488 5485 5482 5480 5477 5474 5472 5470 5467 5465 5462
5614 5613 5611 5610 5605 5600 5603 5606 5600 5593 5597 5608 5615 5615 5615 5614 5610 5605 5604 5607 5606 5603 5601 5599 5598 5596 5594 5593 5594 5592 5591 5590 5589 5589 5588 5585 5582 5581 5579 5577 5575 5574 5574 5573 5571 5569 5566 5563 5561 5558 5556 5553 5550 5547 5544 5541 5538 5535 5533 5530 5527 5524 5521 5517 5514 5510 5506 5503 5499 5496 5493 5490 5487 5484 5481 5479 5476 5473 5471 5468 5466 5464 5461 5459 5456 5454
5607 5605 5602 5600 5598 5594 5593 5593 5589 5586 5593 5601 5602 5604 5607 5604 5599 5597 5595 5597 5598 5594 5591 5589 5586 5586 5586 5585 5584 5582 5581 5580 5580 5581 5580 5576 5573 5572 5570 5569 5568 5567 5567 5565 5563 5561 5558 5555 5553 5550 5547 5544 5542 5539 5535 5532 5529 5526 5523 5520 5516 5513 5510 5506 5503 5499 5495 5492 5489 5486 5483 5480 5478 5475 5472 5470 5467 5465 5462 5460 5457 5455 5453 5451 5448 5445
5599 5596 5595 5592 5589 5588 5585 5583 5582 5581 5583 5589 5592 5596 5598 5592 5588 5587 5583 5585 5590 5588 5582 5577 5575 5577 5578 5576 5574 5573 5572 5571 5572 5574 5571 5566 5564 5563 5562 5563 5562 5560 5559 5556 5554 5552 5549 5547 5544 5541 5539 5536 5533 5529 5526 5522 5519 5516 5513 5510 5506 5503 5499 5496 5492 5488 5485 5482 5478 5476 5473 5471 5469 5466 5464 5461 5459 5456 5454 5451 5449 5446 5444 5442 5439 5436
5590 5588 5588 5585 5581 5581 5579 5576 5575 5572 5573 5581 5586 5587 5587 5582 5579 5576 5570 5572 5582 5582 5574 5569 5567 5568 5568 5566 5565 5565 5564 5562 5565 5567 5562 5556 5556 5557 5556 5556 5554 5551 5550 5547 5545 5543 5540 5537 5535 5532 5530 5527 5523 5519 5516 5512 5509 5506 5503 5499 5496 5492 5489 5485 5482 5478 5475 5472 5469 5466 5464 5462 5460 5458 5455 5453 5450 5448 5445 5442 5440 5437 5435 5432 5430 5427
5582 5580 5581 5577 5572 5574 5572 5568 5567 5564 5566 5576 5580 5578 5577 5572 5570 5568 5560 5560 5572 5575 5567 5562 5561 5559 5558 5557 5557 5557 5555 5554 5557 5559 5553 5549 5551 5551 5549 5547 5545 5542 5540 5538 5536 5533 5531 5528 5525 5523 5520 5517 5513 5509 5506 5502 5499 5496 5492 5489 5485 5482 5479 5475 5472 5468 5465 5462 5460 5458 5456 5454 5452 5449 5447 5445 5442 5439 5437 5434 5431 5429 5426 5423 5420 5418
5573 5572 5571 5567 5565 5566 5564 5560 5557 5557 5561 5569 5571 5569 5568 5564 5561 5559 5552 5552 5561 5563 5558 5556 5554 5551 5551 5550 5548 5549 5548 5547 5548 5548 5545 5543 5544 5543 5540 5538 5535 5533 5531 5529 5526 5523 5521 5518 5516 5513 5510 5506 5502 5499 5495 5491 5488 5485 5482 5479 5476 5472 5469 5466 5463 5460 5457 5454 5452 5450 5448 5446 5444 5441 5439 5436 5434 5431 5428 5425 5423 5420 5417 5414 5411 5409
5564 5563 5560 5558 5558 5558 5555 5551 5548 5549 5558 5564 5561 5559 5560 5556 5550 5549 5548 5547 5547 5546 5547 5548 5546 5544 5543 5542 5541 5541 5542 5541 5540 5539 5537 5536 5535 5533 5530 5527 5525 5524 5522 5519 5516 5514 5511 5509 5506 5502 5499 5495 5492 5489 5485 5481 5479 5476 5473 5470 5466 5463 5460 5457 5454 5452 5449 5447 5445 5443 5441 5439 5436 5434 5431 5428 5426 5423 5420 5416 5414 5411 5408 5405 5403 5400
5555 5553 5550 5550 5551 5549 5548 5545 5539 5542 5555 5560 5552 5549 5550 5544 5538 5540 5542 5539 5535 5535 5537 5538 5537 5536 5534 5533 5534 5535 5534 5533 5532 5531 5529 5526 5524 5522 5519 5517 5515 5514 5512 5510 5507 5505 5502 5499 5496 5492 5489 5485 5482 5479 5475 5472 5469 5467 5464 5461 5458 5455 5452 5449 5447 5445 5442 5440 5438 5436 5434 5431 5428 5426 5423 5420 5417 5415 5411 5408 5405 5402 5399 5397 5394 5392
5545 5543 5542 5544 5546 5542 5540 5538 5533 5536 5549 5552 5543 5537 5537 5533 5531 5532 5531 5529 5528 5529 5528 5527 5526 5526 5525 5525 5526 5526 5526 5527 5525 5522 5520 5516 5513 5511 5509 5507 5505 5503 5502 5500 5498 5495 5492 5489 5486 5482 5479 5476 5472 5469 5466 5463 5460 5458 5456 5453 5450 5447 5445 5443 5440 5438 5436 5433 5431 5428 5426 5423 5420 5417 5415 5412 5409 5406 5403 5399 5396 5393 5390 5387 5385 5383
5536 5536 5537 5539 5539 5534 5531 5531 5530 5532 5538 5538 5532 5529 5527 5525 5524 5523 5521 5521 5520 5519 5518 5517 5518 5518 5518 5518 5518 5517 5518 5519 5516 5514 5511 5507 5504 5502 5499 5497 5495 5492 5491 5490 5488 5485 5482 5478 5475 5472 5469 5466 5463 5460 5457 5454 5452 5451 5448 5446 5443 5441 5439 5436 5434 5431 5429 5426 5423 5421 5418 5415 5412 5409 5406 5403 5400 5397 5394 5391 5388 5385 5381 5378 5376 5374
5529 5531 5531 5531 5529 5526 5524 5525 5525 5526 5527 5527 5525 5522 5518 5515 5515 5514 5512 5512 5510 5509 5509 5510 5511 5510 5510 5510 5510 5510 5510 5509 5507 5505 5502 5498 5496 5493 5490 5488 5485 5483 5481 5480 5477 5475 5472 5468 5465 5462 5459 5457 5454 5451 5449 5446 5445 5443 5441 5439 5437 5435 5432 5430 5427 5424 5421 5418 5415 5413 5410 5407 5403 5400 5397 5394 5391 5388 5385 5382 5380 5377 5373 5370 5367 5365
5522 5523 5523 5522 5522 5520 5518 5519 5519 5519 5520 5519 5516 5513 5510 5507 5506 5504 5502 5502 5501 5501 5502 5503 5503 5502 5502 5502 5503 5502 5500 5499 5498 5495 5492 5489 5487 5484 5481 5479 5476 5473 5471 5469 5466 5464 5460 5458 5456 5453 5450 5448 5446 5443 5441 5439 5438 5437 5435 5433 5431 5428 5425 5423 5420 5417 5413 5410 5407 5404 5401 5398 5395 5391 5388 5385 5382 5379 5376 5374 5371 5368 5365 5361 5359 5357
5516 5516 5514 5514 5515 5513 5511 5512 5513 5512 5511 5510 5507 5505 5502 5499 5495 5493 5492 5493 5494 5494 5495 5495 5494 5494 5494 5495 5494 5492 5491 5490 5487 5484 5482 5479 5478 5476 5473 5469 5466 5464 5461 5458 5456 5453 5451 5449 5447 5444 5442 5441 5438 5436 5435 5433 5432 5430 5428 5426 5424 5421 5418 5415 5412 5409 5405 5402 5399 5396 5393 5390 5386 5383 5379 5376 5373 5370 5367 5365 5363 5360 5357 5353 5351 5349
5510 5509 5508 5508 5508 5507 5505 5505 5505 5503 5502 5502 5499 5495 5492 5489 5486 5485 5484 5485 5487 5487 5487 5486 5485 5485 5486 5486 5484 5482 5481 5479 5476 5474 5471 5469 5468 5466 5463 5459 5457 5454 5451 5449 5447 5445 5443 5441 5439 5437 5435 5434 5432 5430 5428 5427 5425 5423 5421 5419 5416 5413 5410 5407 5404 5401 5397 5394 5391 5388 5385 5382 5378 5375 5372 5368 5365 5362 5359 5356 5354 5352 5349 5345 5343 5341
5501 5502 5504 5502 5501 5501 5498 5497 5496 5494 5492 5491 5488 5485 5483 5481 5478 5476 5477 5478 5479 5479 5478 5477 5476 5476 5477 5476 5474 5472 5471 5469 5466 5463 5461 5460 5459 5457 5453 5450 5448 5446 5443 5442 5439 5437 5436 5434 5432 5431 5429 5427 5426 5424 5422 5420 5418 5416 5414 5412 5409 5406 5403 5400 5397 5393 5390 5386 5383 5380 5377 5374 5371 5368 5365 5361 5358 5355 5352 5349 5347 5345 5342 5338 5335 5333
5496 5497 5499 5497 5493 5491 5490 5488 5486 5482 5480 5481 5480 5477 5475 5472 5468 5468 5470 5471 5471 5469 5468 5467 5467 5468 5468 5468 5466 5463 5461 5461 5458 5454 5452 5451 5450 5448 5445 5443 5441 5439 5437 5435 5433 5431 5430 5428 5426 5425 5423 5421 5420 5418 5416 5414 5411 5409 5407 5404 5402 5399 5396 5393 5390 5386 5383 5380 5376 5373 5370 5367 5364 5360 5357 5355 5352 5349 5346 5343 5339 5337 5335 5333 5329 5326
5491 5493 5493 5488 5482 5479 5479 5479 5476 5472 5472 5474 5473 5469 5465 5462 5460 5460 5462 5462 5461 5460 5458 5457 5459 5461 5460 5459 5457 5454 5452 5451 5449 5446 5445 5444 5442 5440 5437 5436 5434 5433 5431 5429 5428 5426 5424 5422 5421 5419 5417 5415 5413 5411 5409 5407 5404 5402 5400 5397 5395 5392 5389 5386 5383 5380 5376 5373 5370 5367 5364 5360 5357 5354 5351 5348 5345 5343 5341 5338 5334 5329 5327 5325 5322 5319